Regional Weather Roundup
Issued by NWS

Home | Current Version | Previous Version | Graphics & Text | Print | Product List | Glossary On
Versions: 1 2 3 4 5 6 7 8 9 10 11 12 13 14 15 16 17 18 19 20 21 22 23 24 25 26 27 28 29 30 31 32 33 34 35 36 37 38 39 40 41 42 43 44 45 46 47 48 49 50
000
ASUS43 KMPX 021101
RWRMN
WEATHER ROUNDUP FOR MINNESOTA
NATIONAL WEATHER SERVICE TWIN CITIES/CHANHASSEN MN
600 AM CDT MON MAY 02 2016


NOTE: "FAIR" INDICATES FEW OR NO CLOUDS BELOW 12,000 FEET WITH NO
SIGNIFICANT WEATHER AND/OR OBSTRUCTIONS TO VISIBILITY. N/A MEANS
CURRENT SKY AND/OR WEATHER CONDITIONS ARE NOT AVAILABLE.

MNZ060>063-068>070-021200-
   Twin Cities Metro

CITY           SKY/WX    TMP DP  RH WIND       PRES   REMARKS
TWIN CITIES    CLEAR     41  36  82 NW5       30.11S
ST PAUL        CLEAR     41  37  86 NW3       30.12S
CRYSTAL        CLEAR     39  34  82 CALM      30.10F
BLAINE         CLEAR     37  37 100 CALM      30.11S
EDEN PRAIRIE   CLEAR     42  36  79 N7        30.10S
SOUTH ST PAUL  CLEAR     39  35  85 CALM      30.11R
LAKE ELMO      FAIR      34  32  93 CALM      30.12R
$$
MNZ001>005-007-008-013>017-022>024-027-028-021200-
   Northwest Minnesota

CITY           SKY/WX    TMP DP  RH WIND       PRES   REMARKS
BEMIDJI        PTCLDY    32  29  90 CALM      30.09S
HALLOCK        CLOUDY    46  28  49 SE8       30.04S
ROSEAU         CLOUDY    39  32  75 S6        30.08S
WARROAD        CLOUDY    37  34  87 CALM      30.09S
THIEF RVR FALL CLOUDY    43  28  56 E6        30.08S
CROOKSTON      CLOUDY    45  30  57 S3        30.07S
FOSSTON        PTCLDY    37  28  70 CALM      30.08S
DETROIT LAKES  CLOUDY    43  37  81 CALM      30.08F
MOORHEAD       CLOUDY    43  34  70 SE5       30.07F
PARK RAPIDS    PTCLDY    38  30  73 CALM      30.08S
MAHNOMEN       FAIR      45  31  58 SE3       30.07F
$$
MNZ006-009>011-018-025>026-021200-
   North Central Minnesota

CITY           SKY/WX    TMP DP  RH WIND       PRES   REMARKS
BAUDETTE       MOCLDY    34  31  88 SE6       30.09S WCI  29
FLAG ISLAND    MOCLDY    43  36  75 CALM      30.08F
INTL FALLS     PTCLDY    29  26  89 CALM      30.10S
WASKISH        CLOUDY    34  34 100 CALM      30.09S
BIG FORK       CLEAR     28  27  93 CALM      30.10S
LONGVILLE      CLEAR     30  28  93 CALM      30.10S
GRAND RAPIDS   CLEAR     28  25  86 CALM      30.12S
CRANE LAKE     CLEAR     27  25  93 CALM      30.13S
ORR            PTCLDY    36  28  75 CALM      30.09S
COOK           CLEAR     27  27 100 CALM      30.12R
WALKER         FAIR      41  29  63 SW3       30.09S
$$
MNZ012-019>021-037-021200-
   Northeast Minnesota

CITY           SKY/WX    TMP DP  RH WIND       PRES   REMARKS
DULUTH         CLEAR     32  29  88 CALM      30.12R
ELY            CLEAR     28  27  93 CALM      30.12S
HIBBING        CLEAR     26  25  96 CALM      30.12S
EVELETH        CLEAR     30  30 100 CALM      30.14R
DULUTH HARBOR  CLEAR     34  34 100 CALM      30.15S
TWO HARBORS    CLEAR     30  27  86 CALM      30.12S
SILVER BAY     MOCLDY    28  27  93 CALM      30.12S
GRAND MARAIS     N/A     32  28  85 N3        30.14R
G MARAIS ARPRT CLEAR     27  23  86 CALM      30.12S
$$
MNZ029>031-032-039>041-046>048-054>057-064-021200-
   West Central Minnesota

CITY           SKY/WX    TMP DP  RH WIND       PRES   REMARKS
FERGUS FALLS   CLOUDY    43  34  70 SE3       30.07F
WHEATON        CLOUDY    41  34  75 S5        30.10F
MORRIS         CLOUDY    37  34  87 S3        30.09S
ALEXANDRIA     CLEAR     42  30  62 SW7       30.10F
ELBOW LAKE     FAIR      39  32  75 S3        30.09F
WADENA         CLEAR     34  28  80 CALM      30.09S
GLENWOOD       CLEAR     37  36  93 CALM      30.11S
APPLETON       CLEAR     36  34  93 CALM      30.10S
BENSON         CLEAR     34  30  86 CALM      30.10F
ORTONVILLE     CLOUDY    39  30  70 W3        30.09F
MADISON        CLEAR     37  32  81 W5        30.10F
WILLMAR        FAIR      36  32  87 CALM      30.12F
$$
MNZ033>034-036-042>043-049>051-058-059-021200-
   Central Minnesota

CITY           SKY/WX    TMP DP  RH WIND       PRES   REMARKS
ST CLOUD       CLEAR     32  31  96 CALM      30.11F
SAUK CENTRE    FAIR      32  31  97 CALM      30.11S
PAYNESVILLE    CLEAR     32  32  99 CALM      30.11S
AITKIN         CLEAR     30  28  93 CALM      30.10S
PINE RIVER     CLEAR     34  30  86 CALM      30.13F
BRAINERD       CLEAR     31  29  92 CALM      30.11F
STAPLES        CLEAR     34  30  86 CALM      30.10S
LONG PRAIRIE   FAIR      34  32  93 CALM      30.11S
LITTLE FALLS   CLEAR     32  30  93 CALM      30.11S
LITCHFIELD     CLEAR     37  37 100 CALM      30.11S
BUFFALO        CLEAR     36  33  88 CALM      30.12F
MAPLE LAKE     CLEAR     35  35  98 CALM      30.12F
HUTCHINSON     PTCLDY    37  36  96 CALM      30.12S
$$
MNZ037-044-045-052-053-021200-
   East Central Minnesota

CITY           SKY/WX    TMP DP  RH WIND       PRES   REMARKS
PRINCETON      CLEAR     30  30 100 CALM      30.12S
MORA           CLEAR     32  30  93 CALM      30.13F
CAMBRIDGE      CLEAR     34  27  75 CALM      30.10S
RUSH CITY      CLEAR     32  30  93 CALM      30.12S
MOOSE LAKE     CLEAR     30  30 100 CALM      30.11S
HINCKLEY       FAIR      32  32 100 CALM      30.12S
CLOQUET        CLEAR     28  27  93 NW1       30.12S
MCGREGOR       CLEAR     32  32 100 CALM      30.13S
$$
MNZ071>073-080-081-089-090-097-098-021200-
   Southwest Minnesota

CITY           SKY/WX    TMP DP  RH WIND       PRES   REMARKS
MONTEVIDEO     CLEAR     37  30  75 CALM      30.12F
GRANITE FALLS  CLEAR     37  32  83 CALM      30.13S
CANBY          CLEAR     42  35  75 NW5       30.12S
MARSHALL       CLEAR     43  31  62 SW7       30.12S
REDWOOD FALLS  CLEAR     40  32  73 W5        30.11F
OLIVIA         CLEAR     36  32  87 CALM      30.11S
WINDOM         CLEAR     37  36  93 CALM      30.12S
WORTHINGTON    CLEAR     40  33  76 W3        30.13S
JACKSON        CLEAR     41  34  75 NW5       30.12S
TRACY          CLEAR     43  33  67 W7        30.11F
SLAYTON        CLEAR     37  33  86 W6        30.12F
$$
MNZ065>067-074>077-082>085-091>093-021200-
   South Central Minnesota

CITY           SKY/WX    TMP DP  RH WIND       PRES   REMARKS
MANKATO        CLEAR     43  34  70 CALM      30.10S
NEW ULM        CLEAR     37  34  87 W5        30.11S
ST JAMES       CLEAR     34  30  86 CALM      30.13S
FAIRMONT       CLEAR     39  32  75 NW5       30.11R
GLENCOE        CLEAR     37  35  94 NW3       30.11R
FARIBAULT      CLEAR     36  34  93 CALM      30.11S
OWATONNA         N/A     34  34 100 CALM      30.11R FOG
WASECA         CLEAR     34  32  93 CALM      30.12R
$$
MNZ078>079-086>088-094>096-021200-
   Southeast Minnesota

CITY           SKY/WX    TMP DP  RH WIND       PRES   REMARKS
ROCHESTER      CLEAR     39  39 100 S6        30.11S
RED WING       CLEAR     37  34  87 CALM      30.10S
STANTON        CLEAR     35  32  90 CALM      30.10R
DODGE CENTER   PTCLDY    36  36 100 CALM      30.10S
WINONA         CLEAR     37  37 100 CALM      30.13R
AUSTIN         PTCLDY    36  36 100 CALM      30.10S FOG
PRESTON        CLEAR     40  38  93 CALM      30.12R
$$
ABBREVIATIONS USED IN REMARKS
   TC - TEMPERATURES IN CELSIUS
  WCI - WIND CHILL INDEX
   HX - HEAT INDEX
  VSB - VISIBILITY
$$




USA.gov is the U.S. government's official web portal to all federal, state and local government web resources and services.